Simultaneous Nadir Overpasses (SNOs) Predictions

Prediction of SNOs between NOAA-19 and TERRA Satellite Orbit:

Table of predicted SNOs for the next 14.0 days since TLE Epoch: 12/23/2023
Index Date (NOAA-19) Time (NOAA-19) Lat,Lon (NOAA-19) SZA (NOAA-19 ) Date (TERRA) Time (TERRA) Lat,Lon (TERRA) SZA (TERRA ) Distance(km) Time Diff (sec)
1 12/23/2023 17:56:17 -80.56, 118.30 75.05 12/23/2023 17:56:05 -80.56, 118.32 75.05 0.46 12
2 12/25/2023 20:55:34 -80.53, 72.98 75.17 12/25/2023 20:56:30 -80.53, 72.85 75.17 2.42 56
3 12/25/2023 21:46:29 80.56,-119.27 104.89 12/25/2023 21:45:51 80.56,-119.19 104.88 1.45 38
4 12/28/2023 00:45:45 80.53,-164.49 104.74 12/28/2023 00:46:15 80.54,-164.51 104.75 0.78 30
5 12/28/2023 01:36:46 -80.56, 3.31 75.20 12/28/2023 01:35:36 -80.56, 3.30 75.23 0.82 70
6 12/30/2023 04:36:03 -80.53, -42.15 75.41 12/30/2023 04:36:00 -80.52, -42.15 75.42 0.54 3
7 01/01/2024 07:35:19 -80.51, -87.33 75.63 01/01/2024 07:36:23 -80.51, -87.44 75.62 2.01 64
8 01/01/2024 08:26:12 80.54, 80.61 104.45 01/01/2024 08:25:44 80.53, 80.46 104.42 3.03 28
9 01/03/2024 11:25:29 80.49, 34.88 104.14 01/03/2024 11:26:07 80.50, 35.00 104.16 2.40 38
10 01/03/2024 12:16:30 -80.54,-156.87 75.75 01/03/2024 12:15:27 -80.55,-156.82 75.76 1.30 63



Historial Predications of SNOs between NOAA-19 and TERRA
